Location: D�derode
(51.8092°N, 10.1065°E)
Time: 18:13:32
(UTC+00:00)

Cosmos 1538 Rocket - Visible Passes

Search period start: 16 April 2021 00:00
Search period end: 26 April 2021 00:00
Orbit: 751 x 792 km, 74.0° (Epoch: 15 April)

Date Brightness Start Highest point End Pass type
(mag) Time Alt. Az. Time Alt. Az. Time Alt. Az.
16 Apr 3.9 01:28:36 10° NNW 01:33:59 72° WSW 01:36:03 38° S visible
16 Apr 5.8 03:13:00 10° WNW 03:15:10 12° W 03:16:20 12° WSW visible
16 Apr 6.4 23:11:13 10° N 23:15:02 19° NE 23:18:50 10° E visible
17 Apr 4.1 00:52:42 10° NNW 00:58:07 78° ENE 01:00:08 40° SE visible
17 Apr 5.4 02:35:54 10° NW 02:39:39 20° W 02:40:26 19° WSW visible
17 Apr 6.6 22:35:44 10° N 22:38:41 15° NE 22:41:38 10° ENE visible
18 Apr 4.7 00:16:52 10° NNW 00:22:09 53° ENE 00:24:20 33° ESE visible
18 Apr 4.9 01:59:27 10° NW 02:04:03 29° W 02:04:38 29° WSW visible
18 Apr 6.8 22:00:38 10° NNE 22:02:16 11° NNE 22:03:53 10° NE visible
18 Apr 5.3 23:41:06 10° NNW 23:46:06 37° NE 23:48:38 24° ESE visible
19 Apr 4.4 01:23:16 10° NW 01:28:23 44° WSW 01:28:57 43° WSW visible
19 Apr 5.8 23:05:24 10° N 23:09:58 27° NE 23:12:59 17° E visible
20 Apr 4.0 00:47:14 10° NNW 00:52:37 68° WSW 00:53:18 61° SSW visible
20 Apr 6.0 02:31:57 10° WNW 02:33:37 12° W 02:33:37 12° W visible
20 Apr 6.2 22:29:48 10° N 22:33:43 20° NE 22:37:24 11° E visible
21 Apr 4.0 00:11:19 10° NNW 00:16:45 82° ENE 00:17:44 61° SE visible
21 Apr 5.6 01:54:38 10° NW 01:58:03 18° W 01:58:03 18° W visible
21 Apr 6.5 21:54:18 10° N 21:57:23 15° NE 22:00:28 10° ENE visible
21 Apr 4.5 23:35:29 10° NNW 23:40:48 56° ENE 23:42:11 43° ESE visible
22 Apr 5.1 01:18:08 10° NW 01:22:31 28° W 01:22:31 28° W visible
22 Apr 6.6 21:19:06 10° N 21:20:58 12° NNE 21:22:49 10° NE visible
22 Apr 5.1 22:59:42 10° NNW 23:04:46 39° NE 23:06:42 29° E visible
23 Apr 4.5 00:41:56 10° NW 00:46:59 42° WSW 00:47:01 42° WSW visible
23 Apr 5.7 22:24:00 10° N 22:28:38 28° NE 22:31:14 19° E visible
24 Apr 4.0 00:05:53 10° NNW 00:11:14 64° WSW 00:11:34 62° SW visible
24 Apr 6.2 01:51:01 10° WNW 01:51:53 11° W 01:51:53 11° W visible
24 Apr 6.1 21:48:22 10° N 21:52:24 21° NE 21:55:49 12° E visible
24 Apr 4.0 23:29:57 10° NNW 23:35:23 86° ENE 23:36:08 67° SE visible
25 Apr 5.8 01:13:23 10° NW 01:16:28 17° W 01:16:28 17° W visible
25 Apr 6.4 21:12:52 10° N 21:16:05 16° NE 21:19:17 10° ENE visible
25 Apr 4.4 22:54:06 10° NNW 22:59:27 59° ENE 23:00:44 46° ESE visible
